Falls City, NE

3:07 AM CST on December 15, 2017 (GMT -0600)
Brenner

Weather History for KFNB - April, 2012

Change the Weather History Date:

Sunday, April 15, 2012

  Actual Average Record
Temperature  
Mean Temperature 62 °F -  
Max Temperature 73 °F 65 °F 90 °F (2002)
Min Temperature 50 °F 39 °F 25 °F (1962)
Degree Days  
Heating Degree Days 3    
Growing Degree Days 12 (Base 50)    
Moisture  
Dew Point 54 °F    
Average Humidity 74    
Maximum Humidity 100    
Minimum Humidity 30    
Precipitation  
Precipitation 1.01 in - - ()
Sea Level Pressure  
Sea Level Pressure 29.45 in    
Wind  
Wind Speed 16 mph (SSW)    
Max Wind Speed 37 mph    
Max Gust Speed 48 mph    
Visibility 9 miles    
Events Rain , Thunderstorm    
Averages and records for this station are not official NWS values.
T = Trace of Precipitation, MM = Missing Value Source: NWS Daily Summary

Daily Weather History Graph

Daily Weather History Graph

Search for Another Location

Airport or City:

Trip Planner

Search our weather history database for the weather conditions in past years. The results will help you decide how hot, cold, wet, or windy it might be!

Date:

Astronomy

Apr. 15, 2012 Rise Set
Actual Time 6:43 AM CDT 8:01 PM CDT
Civil Twilight 6:15 AM CDT 8:29 PM CDT
Nautical Twilight 5:41 AM CDT 9:03 PM CDT
Astronomical Twilight 5:06 AM CDT 9:38 PM CDT
Moon 3:42 AM CDT 2:57 PM CDT
Length of Visible Light 14h 14m
Length of Day
13h 17m
Waning Crescent, 27% of the Moon is Illuminated
Apr 15
Waning Crescent
Apr 21
New
Apr 29
First Quarter
May 5
Full
May 12
Last Quarter

Hourly Weather History & Observations

Time (CDT) Temp. Dew Point Humidity Pressure Visibility Wind Dir Wind Speed Gust Speed Precip Events Conditions
12:36 AM 71.6 °F 62.6 °F 73% 29.50 in 10.0 mi South 16.1 mph 26.5 mph 0.00 in Rain , Thunderstorm Light Rain
12:50 AM 71.6 °F 62.6 °F 73% 29.50 in 10.0 mi SSW 12.7 mph 20.7 mph 0.00 in Rain , Thunderstorm Light Rain
12:51 AM 71.1 °F 63.0 °F 75% 29.47 in 10.0 mi South 12.7 mph 20.7 mph 0.00 in Rain , Thunderstorm Light Rain
1:19 AM 71.6 °F 62.6 °F 73% 29.48 in 10.0 mi South 5.8 mph - 0.01 in   Mostly Cloudy
1:42 AM 69.8 °F 64.4 °F 83% 29.51 in 4.0 mi South 19.6 mph 26.5 mph 0.07 in Rain , Thunderstorm Heavy Thunderstorms and Rain
1:48 AM 66.2 °F 62.6 °F 88% 29.53 in 1.8 mi SSW 36.8 mph 46.0 mph 0.20 in Rain , Thunderstorm Heavy Thunderstorms and Rain
1:53 AM 64.0 °F 60.1 °F 87% 29.50 in 1.5 mi SSW 21.9 mph 46.0 mph 0.27 in Rain , Thunderstorm Heavy Thunderstorms and Rain
1:59 AM 64.4 °F 60.8 °F 88% 29.49 in 3.0 mi South 15.0 mph 32.2 mph N/A Rain , Thunderstorm Heavy Thunderstorms and Rain
2:53 AM 57.9 °F 57.9 °F 100% 29.51 in 1.0 mi West 8.1 mph 33.4 mph 0.62 in Rain , Thunderstorm Heavy Thunderstorms and Rain
3:00 AM 57.2 °F 57.2 °F 100% 29.46 in 2.0 mi ESE 6.9 mph - 0.03 in Rain , Thunderstorm Heavy Thunderstorms and Rain
3:08 AM 57.2 °F 57.2 °F 100% 29.48 in 5.0 mi ESE 9.2 mph - 0.07 in Rain , Thunderstorm Heavy Thunderstorms and Rain
3:53 AM 59.0 °F 59.0 °F 100% 29.46 in 10.0 mi SE 10.4 mph - 0.10 in Rain Light Rain
4:05 AM 59.0 °F 59.0 °F 100% 29.48 in 10.0 mi SE 3.5 mph - 0.00 in Thunderstorm Overcast
4:28 AM 59.0 °F 57.2 °F 94% 29.45 in 10.0 mi East 8.1 mph - 0.01 in Rain Light Rain
4:53 AM 62.1 °F 61.0 °F 96% 29.39 in 10.0 mi SSE 4.6 mph - 0.02 in Rain Light Rain
5:53 AM 61.0 °F 60.1 °F 97% 29.41 in 10.0 mi SE 9.2 mph - 0.00 in   Clear
6:53 AM 62.1 °F 60.1 °F 93% 29.39 in 10.0 mi SSE 9.2 mph - N/A   Clear
7:53 AM 64.0 °F 57.0 °F 78% 29.39 in 10.0 mi SSE 13.8 mph - N/A   Clear
8:53 AM 66.0 °F 57.9 °F 75% 29.39 in 10.0 mi South 16.1 mph 28.8 mph N/A   Clear
9:53 AM 66.0 °F 57.9 °F 75% 29.39 in 10.0 mi South 21.9 mph 29.9 mph N/A   Clear
10:53 AM 68.0 °F 57.0 °F 68% 29.38 in 10.0 mi South 19.6 mph 33.4 mph N/A   Clear
11:53 AM 68.0 °F 54.0 °F 61% 29.37 in 10.0 mi South 26.5 mph 34.5 mph N/A   Clear
12:53 PM 68.0 °F 52.0 °F 56% 29.37 in 10.0 mi South 23.0 mph 40.3 mph N/A   Mostly Cloudy
1:53 PM 72.0 °F 54.0 °F 53% 29.36 in 10.0 mi South 25.3 mph 35.7 mph N/A   Clear
2:53 PM 73.0 °F 48.0 °F 41% 29.35 in 10.0 mi SSW 25.3 mph 36.8 mph N/A   Partly Cloudy
3:53 PM 71.1 °F 37.9 °F 30% 29.36 in 10.0 mi SSW 25.3 mph 38.0 mph N/A   Clear
4:53 PM 69.1 °F 37.0 °F 31% 29.38 in 10.0 mi SSW 28.8 mph 48.3 mph N/A   Partly Cloudy
5:53 PM 66.0 °F 43.0 °F 43% 29.38 in 10.0 mi SW 26.5 mph 33.4 mph N/A   Mostly Cloudy
6:53 PM 64.0 °F 46.0 °F 52% 29.41 in 10.0 mi WSW 26.5 mph 36.8 mph N/A   Overcast
7:53 PM 59.0 °F 44.1 °F 58% 29.44 in 10.0 mi WSW 25.3 mph 34.5 mph N/A   Mostly Cloudy
8:53 PM 55.0 °F 46.0 °F 72% 29.47 in 10.0 mi WSW 17.3 mph 26.5 mph N/A   Mostly Cloudy
9:53 PM 53.1 °F 45.0 °F 74% 29.51 in 10.0 mi WSW 20.7 mph 29.9 mph N/A   Overcast
10:12 PM 51.8 °F 44.6 °F 76% 29.53 in 10.0 mi WSW 21.9 mph 34.5 mph 0.00 in Rain Light Rain
10:24 PM 51.8 °F 42.8 °F 71% 29.52 in 10.0 mi WSW 19.6 mph 26.5 mph 0.00 in   Overcast
10:53 PM 51.8 °F 42.8 °F 71% 29.54 in 10.0 mi West 20.7 mph 29.9 mph N/A   Overcast
11:53 PM 50.0 °F 39.9 °F 68% 29.56 in 10.0 mi West 25.3 mph 33.4 mph N/A   Overcast